Weather History for Lamoni, IA

Change the Weather History Date:

Wednesday, December 4, 2013

  Actual Average Record
Temperature  
Mean Temperature 29 °F 30 °F  
Max Temperature 39 °F 39 °F 66 °F (1998)
Min Temperature 18 °F 22 °F 2 °F (1991)
Degree Days  
Heating Degree Days 36 35  
Month to date heating degree days 100 136  
Since 1 July heating degree days 1335 1384  
Cooling Degree Days 0 0  
Month to date cooling degree days 0 0  
Year to date cooling degree days 1093 946  
Moisture  
Dew Point 27 °F    
Average Humidity 84    
Maximum Humidity 100    
Minimum Humidity 67    
Precipitation  
Precipitation 0.02 in 0.05 in 0.20 in (1962)
Month to date precipitation 0.02 0.22  
Sea Level Pressure  
Sea Level Pressure 29.71 in    
Wind  
Wind Speed 13 mph (NW)    
Max Wind Speed 25 mph    
Max Gust Speed 33 mph    
Visibility 6 miles    
Events Fog , Rain    
T = Trace of Precipitation, MM = Missing Value Source: NWS Daily Summary

Daily Weather History Graph

Daily Weather History Graph

Search for Another Location

Airport:

Trip Planner

Search our weather history database for the weather conditions in past years. The results will help you decide how hot, cold, wet, or windy it might be!

Date:

Astronomy

Dec. 04, 2013 Rise Set
Actual Time 7:23 AM CST 4:48 PM CST
Civil Twilight 6:52 AM CST 5:19 PM CST
Nautical Twilight 6:18 AM CST 5:53 PM CST
Astronomical Twilight 5:45 AM CST 6:26 PM CST
Moon 8:51 AM CST (12/4) 6:59 PM CST (12/4)
Length of Visible Light 10h 26m
Length of Day
9h 25m
Waxing Crescent, 4% of the Moon is Illuminated
Dec 4
Waxing Crescent
Dec 9
First Quarter
Dec 17
Full
Dec 25
Last Quarter
Jan 1
New

Hourly Weather History & Observations

Time (CST) Temp. Windchill Dew Point Humidity Pressure Visibility Wind Dir Wind Speed Gust Speed Precip Events Conditions
12:53 AM 37.9 °F 32.7 °F 37.0 °F 97% 29.63 in 0.2 mi NE 6.9 mph - N/A Fog Fog
1:53 AM 37.9 °F 32.1 °F 37.0 °F 97% 29.60 in 0.2 mi ENE 8.1 mph - N/A Fog Fog
2:53 AM 39.0 °F 34.8 °F 37.9 °F 96% 29.60 in 0.2 mi ENE 5.8 mph - N/A Fog Fog
3:53 AM 39.0 °F 35.7 °F 37.9 °F 96% 29.59 in 0.2 mi NE 4.6 mph - N/A Fog Fog
4:53 AM 39.0 °F 35.7 °F 37.9 °F 96% 29.57 in 0.2 mi NE 4.6 mph - N/A Fog Fog
5:53 AM 39.0 °F 34.8 °F 37.9 °F 96% 29.57 in 0.2 mi NNE 5.8 mph - N/A Fog Fog
6:53 AM 39.0 °F 34.0 °F 37.0 °F 93% 29.57 in 0.2 mi North 6.9 mph - N/A Fog Fog
7:53 AM 37.9 °F 33.5 °F 37.0 °F 97% 29.59 in 0.2 mi NW 5.8 mph - N/A Fog Fog
8:53 AM 37.9 °F 31.5 °F 37.0 °F 97% 29.58 in 0.8 mi NNW 9.2 mph - N/A   Overcast
9:53 AM 37.9 °F 31.5 °F 37.0 °F 97% 29.60 in 0.8 mi NW 9.2 mph - N/A   Overcast
10:03 AM 37.9 °F 33.5 °F 37.0 °F 97% 29.57 in 1.0 mi NNW 5.8 mph - 0.01 in Rain Light Rain
10:23 AM 37.9 °F 34.4 °F 37.0 °F 97% 29.56 in 2.0 mi North 4.6 mph - 0.02 in Rain Light Rain
10:38 AM 39.0 °F 35.7 °F 37.9 °F 96% 29.56 in 3.0 mi North 4.6 mph - 0.02 in   Overcast
10:53 AM 39.0 °F 34.8 °F 37.9 °F 96% 29.58 in 3.0 mi WNW 5.8 mph - 0.02 in   Overcast
11:33 AM 37.0 °F 28.9 °F 36.0 °F 96% 29.57 in 2.5 mi West 12.7 mph - 0.00 in Rain Light Rain
11:41 AM 37.0 °F 28.9 °F 35.1 °F 93% 29.56 in 3.0 mi West 12.7 mph - 0.00 in   Overcast
11:53 AM 37.0 °F 27.4 °F 35.1 °F 93% 29.58 in 5.0 mi WNW 17.3 mph - 0.00 in   Overcast
12:53 PM 30.9 °F 18.1 °F 30.0 °F 96% 29.59 in 9.0 mi WNW 21.9 mph - N/A   Overcast
1:20 PM 30.9 °F 18.4 °F 28.0 °F 89% 29.59 in 9.0 mi WNW 20.7 mph 28.8 mph N/A   Overcast
1:53 PM 28.9 °F 17.3 °F 27.0 °F 92% 29.63 in 10.0 mi WNW 16.1 mph 26.5 mph N/A   Overcast
2:53 PM 27.0 °F 13.9 °F 23.0 °F 85% 29.67 in 10.0 mi WNW 18.4 mph - N/A   Overcast
3:53 PM 26.1 °F 12.3 °F 21.9 °F 84% 29.72 in 10.0 mi WNW 19.6 mph 27.6 mph N/A   Overcast
4:43 PM 24.1 °F 10.6 °F 19.9 °F 84% 29.72 in 10.0 mi WNW 17.3 mph - N/A   Overcast
4:53 PM 24.1 °F 9.8 °F 19.9 °F 84% 29.77 in 10.0 mi West 19.6 mph 25.3 mph N/A   Overcast
5:53 PM 23.0 °F 8.7 °F 19.0 °F 85% 29.79 in 10.0 mi West 18.4 mph 25.3 mph N/A   Overcast
6:53 PM 23.0 °F 8.0 °F 17.1 °F 78% 29.85 in 10.0 mi West 20.7 mph 26.5 mph N/A   Overcast
7:16 PM 21.9 °F 6.9 °F 16.0 °F 78% 29.83 in 10.0 mi WNW 19.6 mph 27.6 mph N/A   Overcast
7:53 PM 21.9 °F 6.9 °F 15.1 °F 75% 29.88 in 10.0 mi WNW 19.6 mph 26.5 mph N/A   Overcast
8:53 PM 21.9 °F 6.9 °F 15.1 °F 75% 29.90 in 10.0 mi WNW 19.6 mph 23.0 mph N/A   Overcast
9:38 PM 19.9 °F 6.2 °F 12.0 °F 71% 29.88 in 10.0 mi WNW 15.0 mph 26.5 mph N/A   Scattered Clouds
9:53 PM 19.9 °F 5.2 °F 12.0 °F 71% 29.91 in 10.0 mi WNW 17.3 mph - N/A   Partly Cloudy
10:28 PM 19.9 °F 3.2 °F 12.0 °F 71% 29.92 in 10.0 mi West 23.0 mph 28.8 mph N/A   Mostly Cloudy
10:53 PM 19.0 °F 1.6 °F 10.9 °F 71% 29.97 in 10.0 mi WNW 24.2 mph 33.4 mph N/A   Mostly Cloudy
11:04 PM 18.0 °F 1.3 °F 9.0 °F 68% 29.93 in 10.0 mi WNW 20.7 mph 31.1 mph N/A   Partly Cloudy
11:40 PM 18.0 °F 3.1 °F 10.0 °F 71% 29.96 in 10.0 mi WNW 16.1 mph 25.3 mph N/A   Mostly Cloudy
11:53 PM 18.0 °F 2.6 °F 10.0 °F 71% 30.02 in 10.0 mi WNW 17.3 mph 27.6 mph N/A   Mostly Cloudy